Radiation Dose at Monitoring Post of Fukushima Daini Nuclear Power Station
Date,Time,MP-1(microSv/h),MP-2(microSv/h),MP-3(microSv/h),MP-4(microSv/h),MP-5(microSv/h),MP-6(microSv/h),MP-7(microSv/h),Wind Direction,Wind Velocity(m/s),Rain
2019/08/23,00:00,0.185,0.165,0.287,0.268,0.264,0.142,0.088,south,4.6,No
2019/08/23,00:10,0.188,0.167,0.286,0.266,0.263,0.142,0.089,south,4.4,No
2019/08/23,00:20,0.187,0.166,0.282,0.266,0.268,0.143,0.088,south-southeast,4.8,No
2019/08/23,00:30,0.186,0.165,0.284,0.268,0.265,0.141,0.087,south-southeast,4.9,Yes
2019/08/23,00:40,0.186,0.166,0.285,0.267,0.262,0.142,0.088,south-southeast,5.4,Yes
2019/08/23,00:50,0.189,0.166,0.286,0.266,0.264,0.143,0.089,south,4.0,No
2019/08/23,01:00,0.187,0.165,0.284,0.270,0.267,0.143,0.087,south,2.9,No
2019/08/23,01:10,0.185,0.165,0.287,0.267,0.264,0.142,0.088,south-southwest,2.9,No
2019/08/23,01:20,0.188,0.166,0.285,0.265,0.263,0.142,0.089,south,2.8,No
2019/08/23,01:30,0.187,0.166,0.283,0.268,0.268,0.143,0.087,south,3.5,No
2019/08/23,01:40,0.187,0.166,0.286,0.270,0.265,0.144,0.087,south,3.8,No
2019/08/23,01:50,0.186,0.166,0.286,0.266,0.262,0.143,0.089,south,3.1,No
2019/08/23,02:00,0.188,0.165,0.283,0.267,0.265,0.143,0.088,south,3.5,No
2019/08/23,02:10,0.186,0.166,0.286,0.269,0.267,0.144,0.088,south-southwest,2.9,No
2019/08/23,02:20,0.187,0.167,0.287,0.268,0.264,0.143,0.089,south-southwest,4.2,Yes
2019/08/23,02:30,0.189,0.166,0.285,0.268,0.264,0.143,0.089,south-southwest,4.0,Yes
2019/08/23,02:40,0.188,0.165,0.286,0.269,0.268,0.144,0.090,south,3.9,Yes
2019/08/23,02:50,0.188,0.167,0.288,0.268,0.264,0.144,0.089,south,4.0,Yes
2019/08/23,03:00,0.189,0.166,0.285,0.267,0.265,0.143,0.090,south,2.9,Yes
2019/08/23,03:10,0.189,0.168,0.286,0.271,0.268,0.144,0.090,south-southeast,1.3,Yes
2019/08/23,03:20,0.187,0.168,0.289,0.269,0.266,0.145,0.089,south,3.4,Yes
2019/08/23,03:30,0.189,0.167,0.285,0.268,0.264,0.144,0.089,south,3.7,Yes
2019/08/23,03:40,0.190,0.168,0.286,0.271,0.267,0.145,0.090,south,3.8,Yes
2019/08/23,03:50,0.187,0.168,0.288,0.269,0.267,0.145,0.090,south,4.6,Yes
2019/08/23,04:00,0.189,0.167,0.286,0.267,0.264,0.144,0.091,south,5.3,Yes
2019/08/23,04:10,0.189,0.168,0.287,0.269,0.267,0.146,0.091,south,5.3,Yes
2019/08/23,04:20,0.189,0.169,0.287,0.269,0.267,0.145,0.091,south,4.6,Yes
2019/08/23,04:30,0.188,0.168,0.284,0.266,0.263,0.145,0.092,south,4.6,No
2019/08/23,04:40,0.189,0.168,0.285,0.269,0.268,0.145,0.090,south,3.9,No
2019/08/23,04:50,0.188,0.168,0.287,0.269,0.267,0.145,0.090,south,4.0,No
2019/08/23,05:00,0.188,0.166,0.285,0.265,0.264,0.144,0.090,south,3.6,Yes
2019/08/23,05:10,0.190,0.168,0.285,0.268,0.265,0.145,0.090,south,3.0,Yes
2019/08/23,05:20,0.188,0.169,0.288,0.269,0.267,0.146,0.091,south,4.8,Yes
2019/08/23,05:30,0.187,0.168,0.285,0.266,0.265,0.146,0.091,south,5.1,Yes
2019/08/23,05:40,0.189,0.168,0.283,0.267,0.265,0.144,0.091,south,6.2,Yes
2019/08/23,05:50,0.188,0.168,0.286,0.268,0.267,0.145,0.089,south,5.9,Yes
2019/08/23,06:00,0.187,0.167,0.284,0.266,0.264,0.145,0.090,south,5.6,Yes
2019/08/23,06:10,0.189,0.166,0.284,0.267,0.263,0.143,0.090,south-southeast,5.7,Yes
2019/08/23,06:20,0.188,0.167,0.286,0.267,0.267,0.144,0.090,south-southeast,7.0,Yes
2019/08/23,06:30,0.186,0.165,0.283,0.265,0.264,0.144,0.089,south-southeast,7.4,No
2019/08/23,06:40,0.187,0.167,0.281,0.266,0.262,0.143,0.090,south-southeast,6.8,No
2019/08/23,06:50,0.188,0.166,0.285,0.267,0.264,0.142,0.089,south,7.4,No
2019/08/23,07:00,0.186,0.164,0.283,0.265,0.265,0.143,0.088,south,5.7,No
2019/08/23,07:10,0.185,0.165,0.280,0.263,0.261,0.143,0.089,south,5.3,No
2019/08/23,07:20,0.187,0.165,0.284,0.265,0.262,0.142,0.088,south,4.8,No
2019/08/23,07:30,0.186,0.164,0.283,0.264,0.265,0.142,0.087,south,6.2,No
2019/08/23,07:40,0.185,0.164,0.281,0.263,0.264,0.142,0.088,south,6.2,No
2019/08/23,07:50,0.185,0.166,0.282,0.267,0.261,0.142,0.088,south-southwest,5.6,No
2019/08/23,08:00,0.186,0.165,0.283,0.265,0.261,0.141,0.088,south-southwest,4.9,No
2019/08/23,08:10,0.185,0.165,0.282,0.264,0.261,0.141,0.087,south,5.1,No
2019/08/23,08:20,0.185,0.163,0.280,0.263,0.264,0.142,0.087,south,5.6,No
2019/08/23,08:30,0.183,0.163,0.278,0.264,0.266,0.144,0.087,south,5.4,No
2019/08/23,08:40,0.185,0.164,0.282,0.262,0.262,0.142,0.087,south-southeast,5.9,No
2019/08/23,08:50,0.184,0.163,0.284,0.264,0.263,0.141,0.087,south,6.2,No
2019/08/23,09:00,0.184,0.164,0.282,0.263,0.263,0.141,0.087,south,5.3,No
2019/08/23,09:10,0.184,0.163,0.280,0.261,0.262,0.141,0.087,south,5.3,No
2019/08/23,09:20,0.183,0.163,0.280,0.265,0.261,0.143,0.087,south,5.6,No
2019/08/23,09:30,0.185,0.164,0.281,0.268,0.261,0.142,0.087,south,5.5,No
2019/08/23,09:40,0.187,0.166,0.284,0.266,0.265,0.143,0.088,south,5.6,No
2019/08/23,09:50,0.186,0.167,0.284,0.265,0.265,0.141,0.088,south,7.0,No
2019/08/23,10:00,0.186,0.165,0.282,0.264,0.265,0.142,0.089,south,6.5,No
2019/08/23,10:10,0.184,0.164,0.281,0.265,0.263,0.142,0.087,south-southwest,5.9,No
2019/08/23,10:20,0.184,0.165,0.284,0.268,0.262,0.143,0.087,south-southwest,5.3,No
2019/08/23,10:30,0.188,0.164,0.285,0.267,0.261,0.143,0.087,south-southwest,5.5,No
2019/08/23,10:40,0.187,0.166,0.283,0.265,0.264,0.143,0.088,south-southwest,5.7,No
2019/08/23,10:50,0.187,0.165,0.282,0.264,0.266,0.143,0.088,south-southwest,5.5,No
2019/08/23,11:00,0.185,0.165,0.279,0.263,0.265,0.142,0.089,south-southwest,6.5,No
2019/08/23,11:10,0.184,0.164,0.284,0.265,0.262,0.142,0.088,south,5.6,No
2019/08/23,11:20,0.184,0.164,0.285,0.267,0.262,0.142,0.087,south,5.2,No
2019/08/23,11:30,0.184,0.164,0.283,0.267,0.262,0.142,0.087,south-southeast,6.4,No
2019/08/23,11:40,0.183,0.164,0.281,0.265,0.262,0.142,0.087,south-southeast,5.9,No
2019/08/23,11:50,0.185,0.164,0.280,0.265,0.262,0.142,0.087,south-southeast,5.9,No
2019/08/23,12:00,0.185,0.164,0.280,0.264,0.263,0.143,0.087,south,5.7,No
2019/08/23,12:10,0.185,0.163,0.282,0.264,0.263,0.143,0.087,south-southeast,4.8,No
2019/08/23,12:20,0.185,0.165,0.280,0.264,0.262,0.143,0.087,south,3.3,No
2019/08/23,12:30,0.185,0.164,0.282,0.264,0.263,0.143,0.087,south,2.3,No
2019/08/23,12:40,0.185,0.164,0.283,0.265,0.263,0.143,0.088,south-southeast,2.2,No
2019/08/23,12:50,0.185,0.165,0.281,0.265,0.263,0.144,0.088,south-southeast,2.6,No
2019/08/23,13:00,0.186,0.165,0.281,0.265,0.263,0.143,0.088,south-southeast,2.2,No
2019/08/23,13:10,0.186,0.165,0.281,0.265,0.263,0.143,0.088,south-southwest,2.0,No
2019/08/23,13:20,0.186,0.165,0.282,0.264,0.265,0.144,0.088,southwest,3.5,No
2019/08/23,13:30,0.185,0.166,0.281,0.266,0.265,0.144,0.088,west-southwest,4.2,No
2019/08/23,13:40,0.186,0.163,0.283,0.265,0.264,0.144,0.087,west-northwest,4.0,No
2019/08/23,13:50,0.185,0.165,0.282,0.265,0.265,0.144,0.087,west-northwest,3.1,No
2019/08/23,14:00,0.186,0.164,0.282,0.266,0.264,0.144,0.087,west-southwest,1.6,No
2019/08/23,14:10,0.186,0.165,0.283,0.265,0.265,0.142,0.087,-,CALM,No
2019/08/23,14:20,0.186,0.165,0.287,0.265,0.263,0.142,0.087,west,0.9,No
2019/08/23,14:30,0.185,0.164,0.287,0.264,0.264,0.143,0.088,-,CALM,No
2019/08/23,14:40,0.184,0.164,0.283,0.266,0.263,0.143,0.087,west,4.2,No
2019/08/23,14:50,0.186,0.164,0.283,0.270,0.263,0.144,0.087,west-northwest,3.6,No
2019/08/23,15:00,0.188,0.165,0.282,0.268,0.262,0.143,0.087,west-northwest,1.9,No
2019/08/23,15:10,0.189,0.166,0.283,0.268,0.262,0.143,0.087,west-northwest,2.6,No
2019/08/23,15:20,0.187,0.166,0.286,0.266,0.264,0.143,0.087,west-northwest,1.9,No
2019/08/23,15:30,0.186,0.166,0.286,0.264,0.262,0.143,0.087,west-northwest,1.4,No
2019/08/23,15:40,0.185,0.164,0.285,0.263,0.263,0.143,0.088,northwest,1.6,No
2019/08/23,15:50,0.184,0.164,0.283,0.264,0.262,0.144,0.088,west-northwest,2.2,No
2019/08/23,16:00,0.185,0.164,0.283,0.268,0.263,0.143,0.088,west-northwest,3.5,No
2019/08/23,16:10,0.189,0.165,0.284,0.268,0.264,0.143,0.088,west,3.3,No
2019/08/23,16:20,0.189,0.166,0.286,0.268,0.267,0.143,0.088,west-northwest,1.8,No
2019/08/23,16:30,0.187,0.166,0.286,0.265,0.267,0.143,0.087,west,1.5,No
2019/08/23,16:40,0.186,0.165,0.284,0.266,0.266,0.143,0.087,west-southwest,2.9,No
2019/08/23,16:50,0.185,0.165,0.282,0.266,0.264,0.143,0.088,west-southwest,3.0,No
2019/08/23,17:00,0.186,0.165,0.285,0.270,0.263,0.143,0.089,west,3.9,No
2019/08/23,17:10,0.188,0.166,0.285,0.268,0.261,0.143,0.088,west-northwest,2.4,No
2019/08/23,17:20,0.188,0.166,0.283,0.266,0.265,0.143,0.087,west-northwest,1.8,No
2019/08/23,17:30,0.186,0.165,0.282,0.266,0.267,0.144,0.088,west,1.9,No
2019/08/23,17:40,0.187,0.166,0.286,0.268,0.265,0.143,0.088,northwest,1.8,No
2019/08/23,17:50,0.189,0.167,0.288,0.269,0.264,0.142,0.088,northwest,1.3,No
2019/08/23,18:00,0.188,0.165,0.284,0.266,0.264,0.144,0.087,west-northwest,1.2,No
2019/08/23,18:10,0.187,0.165,0.284,0.266,0.266,0.145,0.088,northwest,2.3,No
2019/08/23,18:20,0.188,0.167,0.287,0.268,0.265,0.143,0.089,northwest,3.3,No
2019/08/23,18:30,0.188,0.167,0.284,0.267,0.263,0.144,0.088,northwest,2.0,No
2019/08/23,18:40,0.186,0.166,0.283,0.266,0.265,0.144,0.088,north-northwest,2.6,No
2019/08/23,18:50,0.186,0.167,0.286,0.268,0.267,0.143,0.089,northwest,3.9,No
2019/08/23,19:00,0.188,0.166,0.286,0.268,0.265,0.143,0.089,northwest,2.8,No
2019/08/23,19:10,0.188,0.165,0.283,0.266,0.263,0.145,0.087,northwest,4.3,No
2019/08/23,19:20,0.186,0.166,0.285,0.270,0.267,0.143,0.088,northwest,3.3,No
2019/08/23,19:30,0.189,0.166,0.285,0.268,0.266,0.144,0.089,northwest,5.1,No
2019/08/23,19:40,0.188,0.166,0.282,0.266,0.264,0.145,0.088,north-northwest,2.2,No
2019/08/23,19:50,0.186,0.166,0.284,0.269,0.264,0.143,0.089,north-northwest,4.0,No
2019/08/23,20:00,0.189,0.167,0.287,0.269,0.268,0.144,0.089,west-northwest,4.6,Yes
2019/08/23,20:10,0.189,0.167,0.285,0.267,0.267,0.144,0.089,west-northwest,7.3,Yes
2019/08/23,20:20,0.187,0.169,0.284,0.268,0.263,0.144,0.089,northwest,6.2,No
2019/08/23,20:30,0.186,0.167,0.288,0.269,0.266,0.145,0.090,northwest,7.0,No
2019/08/23,20:40,0.189,0.166,0.286,0.267,0.267,0.144,0.089,north-northwest,6.3,No
2019/08/23,20:50,0.190,0.168,0.285,0.268,0.266,0.144,0.089,north-northwest,7.0,No
2019/08/23,21:00,0.187,0.168,0.284,0.269,0.263,0.145,0.089,north-northwest,6.2,No
2019/08/23,21:10,0.186,0.166,0.289,0.268,0.265,0.144,0.089,north-northwest,7.0,No
2019/08/23,21:20,0.188,0.166,0.287,0.268,0.267,0.143,0.088,northwest,7.7,No
2019/08/23,21:30,0.189,0.167,0.284,0.270,0.264,0.144,0.088,northwest,7.0,No
2019/08/23,21:40,0.188,0.168,0.284,0.267,0.263,0.145,0.088,north-northwest,4.5,No
2019/08/23,21:50,0.186,0.165,0.287,0.267,0.267,0.143,0.088,northwest,2.7,No
2019/08/23,22:00,0.187,0.166,0.285,0.269,0.266,0.144,0.089,north-northwest,2.1,No
2019/08/23,22:10,0.190,0.167,0.283,0.269,0.263,0.144,0.089,north-northwest,3.0,No
2019/08/23,22:20,0.188,0.167,0.286,0.267,0.264,0.143,0.089,northwest,2.2,No
2019/08/23,22:30,0.187,0.167,0.287,0.269,0.268,0.144,0.089,north,1.3,No
2019/08/23,22:40,0.189,0.168,0.285,0.269,0.265,0.143,0.089,north-northwest,1.6,No
2019/08/23,22:50,0.188,0.166,0.286,0.266,0.264,0.144,0.089,-,CALM,No
2019/08/23,23:00,0.187,0.165,0.289,0.267,0.266,0.144,0.088,north-northwest,1.0,No
2019/08/23,23:10,0.189,0.167,0.285,0.269,0.266,0.144,0.088,northwest,1.8,No
2019/08/23,23:20,0.189,0.166,0.283,0.267,0.264,0.144,0.089,west-northwest,3.6,No
2019/08/23,23:30,0.187,0.167,0.288,0.267,0.263,0.144,0.088,west-northwest,3.9,No
2019/08/23,23:40,0.187,0.166,0.285,0.270,0.269,0.143,0.089,west,3.0,No
2019/08/23,23:50,0.190,0.165,0.284,0.267,0.267,0.145,0.088,west,2.2,No
